Location: Poughquag
(41.6090°N, 73.6820°W)
Time: 10:11:41
(UTC-05:00)

Vanguard 1 - Pass Details

Date: 29 November 2023
Orbit: 653 x 3826 km, 34.3° (Epoch: 25 February)

Event Time Altitude Azimuth Distance (km) Brightness Sun altitude
Rises 18:48:40 0° 233° (SW) 6,193 15.1 -26.1°
Reaches altitude 10° 18:52:15 10° 229° (SW) 5,527 14.5 -26.8°
Maximum altitude 19:10:15 59° 156° (SSE) 4,024 12.9 -30.1°
Enters shadow 19:19:29 42° 104° (ESE) 4,772 12.9 -31.9°
Drops below altitude 10° 19:32:50 10° 85° (E) 6,746 - -34.4°
Sets 19:37:45 0° 82° (E) 7,568 - -35.3°
